Location: Unspecified
(40.7945°N, 111.1337°W)
Time: 05:33:32
(UTC-06:00)

CZ-3 Stage 3 - Pass Details

Date: 03 June 2019
Orbit: 501 x 34691 km, 30.5° (Epoch: 18 June)

Event Time Altitude Azimuth Distance (km) Brightness Sun altitude
Rises 03:39:04 0° 270° (W) 5,757 6.7 -19.4°
Reaches altitude 10° 03:41:18 10° 267° (W) 5,450 6.5 -19.2°
Maximum altitude 04:03:46 64° 191° (S) 8,558 7.5 -16.6°
Drops below altitude 10° 11:57:09 10° 198° (SSW) 25,334 10.5 64.2°
Sets 12:43:46 0° 186° (S) 17,681 9.7 69.8°
